Change the Weather History Date:

Thursday, September 6, 2012

  Actual Average Record
Temperature  
Mean Temperature 62 °F -  
Max Temperature 79 °F 71 °F 90 °F (1945)
Min Temperature 48 °F 48 °F 33 °F (1996)
Degree Days  
Heating Degree Days 2    
Growing Degree Days 12 (Base 50)    
Moisture  
Dew Point 49 °F    
Average Humidity 68    
Maximum Humidity 96    
Minimum Humidity 33    
Precipitation  
Precipitation 0.00 in - - ()
Sea Level Pressure  
Sea Level Pressure 29.88 in    
Wind  
Wind Speed 2 mph (WNW)    
Max Wind Speed 16 mph    
Max Gust Speed 23 mph    
Visibility 8 miles    
Events Rain    
Averages and records for this station are not official NWS values.
T = Trace of Precipitation, MM = Missing Value Source: NWS Daily Summary

Daily Weather History Graph

Daily Weather History Graph

Search for Another Location

Airport or City:

Trip Planner

Search our weather history database for the weather conditions in past years. The results will help you decide how hot, cold, wet, or windy it might be!

Date:

Astronomy

Sep. 06, 2012 Rise Set
Actual Time 6:20 AM CDT 7:20 PM CDT
Civil Twilight 5:49 AM CDT 7:50 PM CDT
Nautical Twilight 5:13 AM CDT 8:26 PM CDT
Astronomical Twilight 4:35 AM CDT 9:04 PM CDT
Moon 10:08 PM CDT (9/6) 12:40 PM CDT (9/6)
Length of Visible Light 14h 00m
Length of Day
12h 59m
Waning Gibbous, 67% of the Moon is Illuminated
Sep 6
Waning Gibbous
Sep 8
Last Quarter
Sep 15
New
Sep 22
First Quarter
Sep 29
Full

Hourly Weather History & Observations

Time (CDT) Temp. Dew Point Humidity Pressure Visibility Wind Dir Wind Speed Gust Speed Precip Events Conditions
12:44 AM 53.6 °F 51.8 °F 94% 29.84 in 1.8 mi Calm Calm - N/A   Clear
12:52 AM 53.6 °F 51.8 °F 94% 29.84 in 3.0 mi Calm Calm - N/A   Clear
12:54 AM 54.0 °F 52.0 °F 93% 29.84 in 6.0 mi Calm Calm - N/A   Clear
1:54 AM 51.1 °F 50.0 °F 96% 29.85 in 6.0 mi Calm Calm - N/A   Clear
2:15 AM 51.8 °F 50.0 °F 94% 29.85 in 1.8 mi Calm Calm - N/A   Clear
2:23 AM 50.0 °F 48.2 °F 94% 29.85 in 0.8 mi Calm Calm - N/A   Mist
2:32 AM 50.0 °F 48.2 °F 94% 29.85 in 1.2 mi Calm Calm - N/A   Partly Cloudy
2:48 AM 50.0 °F 48.2 °F 94% 29.85 in 3.0 mi Calm Calm - N/A   Clear
2:54 AM 51.1 °F 48.9 °F 92% 29.86 in 9.0 mi Calm Calm - N/A   Clear
3:54 AM 51.1 °F 50.0 °F 96% 29.86 in 10.0 mi Calm Calm - N/A   Clear
4:54 AM 48.9 °F 46.9 °F 93% 29.88 in 10.0 mi Calm Calm - N/A   Clear
5:54 AM 51.1 °F 48.0 °F 89% 29.88 in 10.0 mi Calm Calm - N/A   Clear
6:54 AM 51.1 °F 48.0 °F 89% 29.90 in 10.0 mi Calm Calm - N/A   Clear
7:54 AM 57.9 °F 52.0 °F 81% 29.91 in 10.0 mi Variable 3.5 mph - N/A   Clear
8:54 AM 63.0 °F 53.1 °F 70% 29.91 in 10.0 mi WNW 4.6 mph - N/A   Clear
9:54 AM 69.1 °F 52.0 °F 54% 29.91 in - North - - N/A   Clear
10:23 AM 71.6 °F 51.8 °F 50% 29.91 in - North - - N/A   Partly Cloudy
10:54 AM 73.0 °F 48.9 °F 42% 29.92 in 10.0 mi WNW 10.4 mph 19.6 mph N/A   Clear
11:54 AM 75.0 °F 46.9 °F 37% 29.91 in 10.0 mi West 16.1 mph 23.0 mph N/A   Mostly Cloudy
12:54 PM 75.9 °F 46.9 °F 36% 29.90 in 10.0 mi Variable 5.8 mph 16.1 mph N/A   Mostly Cloudy
1:54 PM 77.0 °F 46.0 °F 33% 29.89 in 10.0 mi West 13.8 mph 19.6 mph N/A   Scattered Clouds
2:54 PM 77.0 °F 46.0 °F 33% 29.88 in 10.0 mi West 8.1 mph 17.3 mph N/A   Scattered Clouds
3:54 PM 77.0 °F 46.0 °F 33% 29.87 in 10.0 mi WNW 8.1 mph - N/A   Mostly Cloudy
4:54 PM 77.0 °F 46.0 °F 33% 29.87 in 10.0 mi WNW 10.4 mph - N/A   Clear
5:54 PM 75.9 °F 45.0 °F 33% 29.87 in 10.0 mi SW 6.9 mph - N/A   Clear
6:54 PM 72.0 °F 46.9 °F 41% 29.88 in 10.0 mi Calm Calm - N/A   Partly Cloudy
7:54 PM 64.9 °F 48.9 °F 56% 29.88 in 10.0 mi Calm Calm - N/A   Partly Cloudy
8:54 PM 64.9 °F 51.1 °F 61% 29.88 in 10.0 mi Calm Calm - N/A   Overcast
9:54 PM 66.0 °F 52.0 °F 60% 29.88 in 10.0 mi NNW 12.7 mph - N/A   Overcast
10:54 PM 64.0 °F 53.1 °F 67% 29.88 in 10.0 mi North 4.6 mph - N/A   Overcast
11:54 PM 62.1 °F 55.0 °F 78% 29.91 in 10.0 mi NW 6.9 mph - 0.00 in Rain Light Rain